Regional Weather Roundup
Issued by NWS Newport/Morehead, NC

Current Version | Previous Version | Text Only | Print | Product List | Glossary On
Versions: 1 2 3 4 5 6 7 8 9 10 11 12 13 14 15 16 17 18 19 20 21 22 23 24 25 26 27 28 29 30 31 32 33 34 35 36 37 38 39 40 41 42 43 44 45 46 47 48 49 50
000
ASUS42 KMHX 191910
RWRMHX
WEATHER ROUNDUP FOR EASTERN NORTH CAROLINA
NATIONAL WEATHER SERVICE NEWPORT/MOREHEAD CITY NC
200 PM EST FRI JAN 19 2018

NOTE: "FAIR" INDICATES FEW OR NO CLOUDS BELOW 12,000 FEET
WITH NO SIGNIFICANT WEATHER AND/OR OBSTRUCTIONS TO VISIBILITY

NCZ015>017-031-032-045>047-102-103-192000-
NORTH COAST

CITY           SKY/WX    TMP DP  RH WIND       PRES   REMARKS
EDENTON        FAIR      55  19  24 SW7       30.15F
ELIZABETH CITY FAIR      51  32  48 W9        30.13F
KITTY HAWK     FAIR      46  20  37 CALM      30.13F
MANTEO         FAIR      46  20  35 W7        30.15F

$$

NCZ045>047-081-094-103-104-192000-
CENTRAL COAST

CITY           SKY/WX    TMP DP  RH WIND       PRES   REMARKS
FRISCO         FAIR      48  28  46 W8        30.18F

$$

NCZ095-097-098-100-101-192000-
SOUTHERN COAST

CITY           SKY/WX    TMP DP  RH WIND       PRES   REMARKS
BEAUFORT       FAIR      50  33  52 SW13      30.19F
CEDAR ISLAND   NOT AVBL
JACKSONVILLE   FAIR      57  20  23 W9        30.18F
PINEY ISLAND   NOT AVBL
WILMINGTON     FAIR      59  18  20 W12G21    30.19F


$$

NCZ011>013-027>030-043-044-078>080-089-090>093-098-192000-
COASTAL PLAIN

CITY           SKY/WX    TMP DP  RH WIND       PRES   REMARKS
AHOSKIE        FAIR      53  22  29 CALM      30.13F
CLINTON        FAIR      53  26  34 SW6       30.20F
ELIZABETHTOWN  NOT AVBL
GOLDSBORO      FAIR      56  16  20 SW7       30.16F
GREENVILLE     FAIR      55  14  19 W7        30.17F
HAVELOCK       NOT AVBL
KENANSVILLE    FAIR      55  19  24 SW10      30.19F
KINSTON        FAIR      55  16  21 SW6       30.19F
NEW BERN       FAIR      57  22  25 W6        30.18F
RICHLANDS      FAIR      56  20  24 W9        30.19F
ROCKY MOUNT    NOT AVBL
WASHINGTON     FAIR      56  16  20 SW8       30.16F
WHITEVILLE     FAIR      56  22  26 S8        30.19F

$$

AMZ130-135-150-152-154-156-158-170-250-252-270-ANZ085-086-088-633-658-670-192000-
MARINE OBSERVATIONS

STATION/POSITION TIME  TEMP    WIND        PRES    WAVE   SWELL
                       AIR SEA DIR/SP/G            HT/PER HT/PER
                 (UTC) (F)     (DEG/KT/KT) (MB)    (FT/S) (FT/S)
CHESAPEAKE LIGHT NOT AVBL
64 E VA BEACH    NOT AVBL
DUCK             NOT AVBL
2 E DUCK         NOT AVBL
OREGON INLET     NOT AVBL
13E OREGON INLT  NOT AVBL
HATTERAS CG      NOT AVBL
DIAMOND BUOY     NOT AVBL
CAPE LOOKOUT     NOT AVBL
BEAUFORT LAB     NOT AVBL
30 SE NEW RVR IN NOT AVBL
30 SE NEW RVR IN NOT AVBL
27 SE WRIGHTSVLE NOT AVBL
5 SE WRIGHTSVLE  NOT AVBL
225 S CAPE HAT   NOT AVBL
41 SE CHARLESTON NOT AVBL

$$



USA.gov is the U.S. government's official web portal to all federal, state and local government web resources and services.